Powrót do katalogu

COSMOS 723

AktywnyMilitariaLEO
NORAD 7718·PAYLOAD·🇷🇺 Russia

Wystrzelony Apr 2, 1975 z Baikonur Cosmodrome

Loading…

Następne Przeloty (najbliższe 24 godziny)

TLE

ŚwieżeSource: Space-Track

Epoka: Sep 14, 2026, 11:00 UTC

1 07718U 75024A   26257.45853491 -.00000093  00000-0 -10120-5 0  9995
2 07718  64.7165  59.7555 0057053 315.7638  43.8868 13.89667732611189

Śledź COSMOS 723 w czasie rzeczywistym z AllMySat

Download on the App Store